Regional Weather Roundup
Issued by NWS Charleston, SC

Current Version | Previous Version | Graphics & Text | Print | Product List | Glossary On
Versions: 1 2 3 4 5 6 7 8 9 10 11 12 13 14 15 16 17 18 19 20 21 22 23 24 25 26 27 28 29 30 31 32 33 34 35 36 37 38 39 40 41 42 43 44 45 46 47 48 49 50
000
ASUS42 KCHS 232127
RWRCHS

REGIONAL WEATHER ROUNDUP
NATIONAL WEATHER SERVICE CHARLESTON SC
500 PM EDT MON OCT 23 2017

NOTE: "FAIR" INDICATES FEW OR NO CLOUDS BELOW 12,000 FEET WITH NO
SIGNIFICANT WEATHER AND/OR OBSTRUCTIONS TO VISIBILITY.

NOT ALL STATIONS ARE QUALITY CONTROLLED. USE DATA WITH CAUTION...
ESPECIALLY DEWPOINT OBSERVATIONS.

SCZ027-030-031-034>040-042>050-232200-
...SOUTHEAST SOUTH CAROLINA...

CITY           SKY/WX    TMP DP  RH WIND       PRES   REMARKS
N CHARLESTON   PTSUNNY   77  75  93 S14       29.88F
WATERFRONT PRK NOT AVBL
JOHNS ISLAND   MOCLDY    77  75  94 S13G21    29.88F FOG
PINOPOLIS        N/A     75  73  94 S6        29.82
MONCKS CORNER  MOCLDY    73  72  94 S10G16    29.87F
SUMMERVILLE    CLOUDY    73  72  94 SE7       29.88F
BEAUFORT MCAS  CLOUDY    79  75  87 S9        29.86F
BEAUFORT ARPT  CLOUDY    79  72  78 S12G21    29.85F HAZE
HILTON HEAD IS PTSUNNY   79  73  83 S13G23    29.88F
WALTERBORO     LGT RAIN  75  72  88 S12G17    29.85F
ALLENDALE      DRIZZLE   73  73 100 CALM        N/A

...SOUTHERN MIDLANDS AND PEE DEE...

CITY           SKY/WX    TMP DP  RH WIND       PRES   REMARKS
GEORGETOWN     LGT RAIN  75  75 100 SE15G22   29.92F
KINGSTREE      LGT RAIN  72  70  94 SE14G22   29.86F
ORANGEBURG     LGT RAIN  74  71  91 S14G21    29.83F
BARNWELL         N/A     75  75 100 S10       29.82F
AIKEN          HVY RAIN  68  68 100 W10G22    29.86R
MANNING        MOCLDY    73  72  94 MISG      29.86F
COLUMBIA       LGT RAIN  74  73  97 S12       29.81R FOG
SUMTER         LGT RAIN  72  70  94 S15G24    29.81F
FLORENCE       HVY RAIN  72  72 100 SE10      29.89F FOG
MYRTLE BEACH   CLOUDY    77  71  82 S17       29.94F
N MYRTLE BEACH CLOUDY    77  71  82 S14G25    29.94F

$$

GAZ063-065-086>088-099>101-113>116-118-119-134>141-150-232200-
...SOUTHEAST GEORGIA...

CITY           SKY/WX    TMP DP  RH WIND       PRES   REMARKS
SAVANNAH ARPT  RAIN      78  75  90 S18G32    29.85F FOG
HUNTER AAF     CLOUDY    79  73  83 S13G22    29.82F
FORT STEWART   LGT RAIN  77  73  88 S8        29.82F
STATESBORO     CLOUDY    77  72  85 S10       29.82S
SYLVANIA       CLOUDY    76  76 100 S6        29.80F
CLAXTON        CLOUDY    78  75  90 S8        29.83S FOG

...CSRA...CENTRAL AND FAR SOUTHEAST GEORGIA...

CITY           SKY/WX    TMP DP  RH WIND       PRES   REMARKS
THOMSON        MOSUNNY   71  64  81 NW8       29.88S
AUGUSTA-BUSH   LGT RAIN  72  68  87 W6        29.82R
AUGUSTA-DANIEL LGT RAIN  69  67  93 VRB7      29.84R FOG
SWAINSBORO     CLOUDY    72  72 100 MISG      29.85R
VIDALIA        CLOUDY    73  72  94 SW6       29.85R
EASTMAN        FAIR      76  60  58 W7        29.89S
HAZLEHURST     MOCLDY    77  74  91 W3        29.86R
ALMA           MOSUNNY   80  72  76 SW10      29.86S
WAYCROSS       DRIZZLE   76  73  90 SW9G16    29.88F
JESUP          CLOUDY    77  72  83 SW8G18    29.88R
BAXLEY         PTSUNNY   77  73  88 SW9       29.85F
BRUNSWICK      TSTM      77  73  88 SW9G17    29.90R
SAINT SIMONS   TSTM      79  76  90 S8G18     29.88F FOG

$$

SCZ027-028-034-036>038-045-046-048>050-GAZ119-141-232200-
...LAKE AND SUPPLEMENTAL COASTAL OBSERVATIONS...

STATION/POSITION TIME  TEMP    WIND        PRES    WAVE   SWELL
                       AIR SEA DIR/SP/G            HT/PER HT/PER/DIR
                 (UTC) (F)     (DEG/KT/KT) (MB)    (FT/S) (FT/S/D)
WINYAH BAY       2045   77     160/ 12     1014.0S
LAKE MURRAY      2050   73     170/ 23/ 26 1008.1S
ACE BASIN NERRS  2045   77     150/  5     1012.0F
FORT PULASKI     2100   78 74  180/ 10/ 15 1011.5
SAPELO ISLAND    NOT AVBL

$$

ANZ835-935-AMZ111-154-330-350-352-354-370-450-454-472-232200-
...C-MAN AND BUOY OBSERVATIONS...

STATION/POSITION TIME  TEMP    WIND        PRES    WAVE   SWELL
                       AIR SEA DIR/SP/G            HT/PER HT/PER/DIR
                 (UTC) (F)     (DEG/KT/KT) (MB)    (FT/S) (FT/S/D)
BUOY 41004       2110   80 80  150/ 23/ 29 1012.5
BUOY 41008       2050   79 77  160/ 21/ 25 1011.4F   6/ 8
FOLLY BEACH CMAN 2100   77     160/ 19/ 21 1012.8F
CAPERS NEARSHORE 2108   75 73  170/ 17/ 23 1012.1F
FRIPP NEARSHORE  2108   78     170/ 16/ 21   N/A


STATION/POSITION TIME  TEMP    WIND        PRES    WAVE   SWELL
                       AIR SEA DIR/SP/G            HT/PER HT/PER/DIR
                 (UTC) (F)     (DEG/KT/KT) (MB)    (FT/S) (FT/S/D)
5E ST. MARYS GA  2100      77                N/A     6/ 6
FRYING PAN BUOY  2110   79 78  160/ 21/ 27 1014.7
BUOY 41025       2050   79 80  160/ 19/ 23 1017.4F   6/ 6   2/ 90/10
CAPE LOOKOUT NC  2100   76     150/ 21/ 23 1015.9F
BUOY 41002       2050   78 80  140/ 17/ 19 1018.3S   5/ 5   2/ 70/ 9
BUOY 41010       NOT AVBL
ST AUGUSTINE FL  2100   80 79  160/ 19/ 22 1012.8F


$$




USA.gov is the U.S. government's official web portal to all federal, state and local government web resources and services.